• In Österreich
  • Länderverzeichnis
  • Für 7 Tage
  • Wassertemperatur
  • Satellitenkarten
  • Wetterkarte
  • News
  • Widgets
  • user-avatar
    Anmelden

    Stündliche Wetter Varto

    Heute, 22 Juli, Sonntag

    Zeit Temperatur Niederschläge Wind Luftdruck Luftfeuchtigkeit
    00:00 +18°C° 0,1 mm 3 m/S 616 mmHg 58%
    01:00 +18°C° 0 mm 2 m/S 616 mmHg 62%
    02:00 +17°C° 0 mm 2 m/S 616 mmHg 65%
    03:00 +16°C° 0 mm 2 m/S 615 mmHg 69%
    04:00 +16°C° 0 mm 2 m/S 615 mmHg 70%
    05:00 +16°C° 0 mm 2 m/S 616 mmHg 71%
    06:00 +16°C° 0 mm 2 m/S 616 mmHg 73%
    07:00 +18°C° 0 mm 3 m/S 616 mmHg 64%
    08:00 +20°C° 0 mm 3 m/S 617 mmHg 55%
    09:00 +24°C° 0 mm 3 m/S 618 mmHg 46%
    10:00 +25°C° 0,1 mm 2 m/S 618 mmHg 41%
    11:00 +27°C° 0,1 mm 2 m/S 618 mmHg 36%
    12:00 +28°C° 0,1 mm 2 m/S 618 mmHg 32%
    13:00 +28°C° 0,1 mm 2 m/S 618 mmHg 32%
    14:00 +28°C° 0,1 mm 2 m/S 617 mmHg 32%
    15:00 +28°C° 0,1 mm 1 m/S 617 mmHg 33%
    16:00 +26°C° 1,1 mm 2 m/S 617 mmHg 38%
    17:00 +25°C° 1,1 mm 3 m/S 616 mmHg 44%
    18:00 +23°C° 1,1 mm 4 m/S 616 mmHg 49%
    19:00 +21°C° 0,8 mm 4 m/S 615 mmHg 55%
    20:00 +20°C° 0,8 mm 4 m/S 615 mmHg 60%
    21:00 +18°C° 0,8 mm 3 m/S 615 mmHg 66%
    22:00 +18°C° 0,1 mm 3 m/S 615 mmHg 68%
    23:00 +17°C° 0,1 mm 3 m/S 615 mmHg 71%

    Morgen, 23 Juli, Montag

    Zeit Temperatur Niederschläge Wind Luftdruck Luftfeuchtigkeit
    00:00 +17°C° 0,1 mm 2 m/S 615 mmHg 73%
    01:00 +16°C° 0 mm 2 m/S 615 mmHg 75%
    02:00 +16°C° 0 mm 2 m/S 615 mmHg 77%
    03:00 +15°C° 0 mm 2 m/S 614 mmHg 78%
    04:00 +15°C° 0 mm 2 m/S 614 mmHg 78%
    05:00 +15°C° 0 mm 2 m/S 615 mmHg 78%
    06:00 +15°C° 0 mm 2 m/S 615 mmHg 78%
    07:00 +17°C° 0,1 mm 2 m/S 615 mmHg 70%
    08:00 +19°C° 0,1 mm 2 m/S 616 mmHg 61%
    09:00 +21°C° 0,1 mm 2 m/S 616 mmHg 53%
    10:00 +24°C° 0,3 mm 2 m/S 617 mmHg 46%
    11:00 +26°C° 0,3 mm 1 m/S 617 mmHg 40%
    12:00 +28°C° 0,3 mm 1 m/S 617 mmHg 34%
    13:00 +28°C° 0 mm 1 m/S 617 mmHg 32%
    14:00 +28°C° 0 mm 2 m/S 617 mmHg 30%
    15:00 +29°C° 0 mm 2 m/S 616 mmHg 28%
    16:00 +28°C° 0 mm 2 m/S 616 mmHg 29%
    17:00 +28°C° 0 mm 2 m/S 616 mmHg 30%
    18:00 +27°C° 0 mm 2 m/S 616 mmHg 31%
    19:00 +25°C° 0 mm 2 m/S 616 mmHg 36%
    20:00 +23°C° 0 mm 2 m/S 616 mmHg 41%
    21:00 +21°C° 0 mm 1 m/S 615 mmHg 46%
    22:00 +21°C° 0,1 mm 1 m/S 615 mmHg 49%
    23:00 +19°C° 0,1 mm 2 m/S 615 mmHg 53%

    übermorgen, 24 Juli, Dienstag

    Zeit Temperatur Niederschläge Wind Luftdruck Luftfeuchtigkeit
    00:00 +18°C° 0,1 mm 2 m/S 615 mmHg 56%
    01:00 +18°C° 0 mm 2 m/S 615 mmHg 59%
    02:00 +17°C° 0 mm 2 m/S 615 mmHg 62%
    03:00 +17°C° 0 mm 2 m/S 614 mmHg 65%
    04:00 +17°C° 0 mm 2 m/S 615 mmHg 65%
    05:00 +17°C° 0 mm 2 m/S 615 mmHg 66%
    06:00 +18°C° 0 mm 1 m/S 615 mmHg 66%
    07:00 +20°C° 0 mm 1 m/S 616 mmHg 57%
    08:00 +23°C° 0 mm 1 m/S 617 mmHg 48%
    09:00 +25°C° 0 mm 1 m/S 617 mmHg 40%
    10:00 +27°C° 0 mm 2 m/S 618 mmHg 34%
    11:00 +28°C° 0 mm 3 m/S 618 mmHg 28%
    12:00 +30°C° 0 mm 3 m/S 619 mmHg 22%
    13:00 +32°C° 0 mm 4 m/S 619 mmHg 20%
    14:00 +33°C° 0 mm 4 m/S 619 mmHg 18%
    15:00 +33°C° 0 mm 4 m/S 618 mmHg 16%
    16:00 +33°C° 0 mm 4 m/S 618 mmHg 17%
    17:00 +32°C° 0 mm 4 m/S 618 mmHg 18%
    18:00 +32°C° 0 mm 4 m/S 618 mmHg 19%
    19:00 +28°C° 0 mm 3 m/S 617 mmHg 22%
    20:00 +25°C° 0 mm 2 m/S 617 mmHg 24%
    21:00 +21°C° 0 mm 2 m/S 616 mmHg 27%
    22:00 +22°C° 0 mm 1 m/S 616 mmHg 29%
    23:00 +21°C° 0 mm 1 m/S 616 mmHg 30%

    25 Juli, Mittwoch

    Zeit Temperatur Niederschläge Wind Luftdruck Luftfeuchtigkeit
    00:00 +20°C° 0 mm 1 m/S 615 mmHg 32%
    01:00 +19°C° 0 mm 1 m/S 615 mmHg 33%
    02:00 +19°C° 0 mm 1 m/S 615 mmHg 34%
    03:00 +18°C° 0 mm 1 m/S 615 mmHg 35%
    04:00 +19°C° 0 mm 1 m/S 615 mmHg 36%
    05:00 +19°C° 0 mm 1 m/S 615 mmHg 37%
    06:00 +19°C° 0 mm 1 m/S 616 mmHg 38%
    07:00 +22°C° 0 mm 1 m/S 617 mmHg 32%
    08:00 +25°C° 0 mm 2 m/S 618 mmHg 26%
    09:00 +28°C° 0 mm 2 m/S 619 mmHg 21%
    10:00 +30°C° 0 mm 3 m/S 619 mmHg 19%
    11:00 +32°C° 0 mm 4 m/S 619 mmHg 17%
    12:00 +34°C° 0 mm 5 m/S 619 mmHg 15%
    13:00 +34°C° 0 mm 6 m/S 619 mmHg 14%
    14:00 +35°C° 0 mm 6 m/S 619 mmHg 13%
    15:00 +35°C° 0 mm 7 m/S 619 mmHg 12%
    16:00 +34°C° 0 mm 6 m/S 619 mmHg 13%
    17:00 +33°C° 0 mm 6 m/S 618 mmHg 15%
    18:00 +32°C° 0 mm 5 m/S 618 mmHg 16%
    19:00 +28°C° 0 mm 4 m/S 617 mmHg 19%
    20:00 +25°C° 0 mm 3 m/S 617 mmHg 21%
    21:00 +21°C° 0 mm 2 m/S 616 mmHg 24%
    22:00 +21°C° 0 mm 1 m/S 616 mmHg 26%
    23:00 +20°C° 0 mm 1 m/S 615 mmHg 29%

    26 Juli, Donnerstag

    Zeit Temperatur Niederschläge Wind Luftdruck Luftfeuchtigkeit
    00:00 +19°C° 0 mm 1 m/S 615 mmHg 31%
    01:00 +17°C° 0 mm 0 m/S 615 mmHg 32%
    02:00 +16°C° 0 mm 0 m/S 615 mmHg 34%
    03:00 +16°C° 0 mm 0 m/S 614 mmHg 35%
    04:00 +16°C° 0 mm 0 m/S 615 mmHg 36%
    05:00 +18°C° 0 mm 1 m/S 615 mmHg 37%
    06:00 +19°C° 0 mm 1 m/S 616 mmHg 37%
    07:00 +22°C° 0 mm 1 m/S 617 mmHg 32%
    08:00 +25°C° 0 mm 1 m/S 618 mmHg 26%
    09:00 +28°C° 0 mm 1 m/S 619 mmHg 20%
    10:00 +30°C° 0 mm 2 m/S 619 mmHg 17%
    11:00 +31°C° 0 mm 2 m/S 619 mmHg 14%
    12:00 +32°C° 0 mm 2 m/S 619 mmHg 12%
    13:00 +34°C° 0 mm 3 m/S 619 mmHg 10%
    14:00 +35°C° 0 mm 4 m/S 619 mmHg 9%
    15:00 +36°C° 0 mm 4 m/S 619 mmHg 8%
    16:00 +35°C° 0 mm 4 m/S 619 mmHg 9%
    17:00 +34°C° 0 mm 4 m/S 619 mmHg 10%
    18:00 +33°C° 0 mm 4 m/S 619 mmHg 10%
    19:00 +29°C° 0 mm 3 m/S 618 mmHg 13%
    20:00 +26°C° 0 mm 2 m/S 617 mmHg 15%
    21:00 +21°C° 0 mm 2 m/S 616 mmHg 17%
    22:00 +21°C° 0 mm 1 m/S 616 mmHg 19%
    23:00 +20°C° 0 mm 1 m/S 616 mmHg 20%

    27 Juli, Freitag

    Zeit Temperatur Niederschläge Wind Luftdruck Luftfeuchtigkeit
    00:00 +19°C° 0 mm 1 m/S 616 mmHg 22%
    01:00 +19°C° 0 mm 1 m/S 615 mmHg 25%
    02:00 +19°C° 0 mm 1 m/S 615 mmHg 29%
    03:00 +18°C° 0 mm 1 m/S 615 mmHg 32%
    04:00 +18°C° 0 mm 1 m/S 615 mmHg 37%
    05:00 +19°C° 0 mm 1 m/S 616 mmHg 43%
    06:00 +18°C° 0 mm 2 m/S 616 mmHg 49%
    07:00 +22°C° 0 mm 1 m/S 617 mmHg 41%
    08:00 +25°C° 0 mm 1 m/S 618 mmHg 34%
    09:00 +28°C° 0 mm 1 m/S 619 mmHg 27%
    10:00 +29°C° 0 mm 1 m/S 619 mmHg 22%
    11:00 +31°C° 0 mm 1 m/S 619 mmHg 17%
    12:00 +34°C° 0 mm 2 m/S 619 mmHg 12%
    13:00 +34°C° 0 mm 2 m/S 619 mmHg 10%
    14:00 +35°C° 0 mm 2 m/S 619 mmHg 9%
    15:00 +36°C° 0 mm 2 m/S 619 mmHg 8%
    16:00 +35°C° 0 mm 2 m/S 619 mmHg 8%
    17:00 +35°C° 0 mm 2 m/S 619 mmHg 9%
    18:00 +34°C° 0 mm 2 m/S 619 mmHg 10%
    19:00 +30°C° 0 mm 2 m/S 618 mmHg 13%
    20:00 +26°C° 0 mm 2 m/S 617 mmHg 15%
    21:00 +23°C° 0 mm 1 m/S 616 mmHg 18%
    22:00 +22°C° 0 mm 1 m/S 616 mmHg 25%
    23:00 +20°C° 0 mm 2 m/S 616 mmHg 32%
    Mehr zeigen